�������l�o���
Date,Time,MP-1(��Sv/h),MP-2(��Sv/h),MP-3(��Sv/h),MP-4(��Sv/h),MP-5(��Sv/h),MP-6(��Sv/h),MP-7(��Sv/h),MP-8(��Sv/h),����,����(m/s),���J
2021/02/18,00:00,0.643,0.929,0.595,1.170,0.815,0.373,0.664,0.623,���k��,15.0,��
2021/02/18,00:10,0.642,0.931,0.595,1.170,0.813,0.373,0.662,0.622,��,11.8,��
2021/02/18,00:20,0.641,0.930,0.592,1.167,0.815,0.372,0.663,0.623,��,11.7,��
2021/02/18,00:30,0.642,0.933,0.592,1.168,0.815,0.373,0.661,0.624,��,13.5,��
2021/02/18,00:40,0.642,0.933,0.593,1.169,0.814,0.372,0.661,0.623,��,13.5,��
2021/02/18,00:50,0.641,0.933,0.594,1.169,0.814,0.373,0.663,0.624,��,11.6,��
2021/02/18,01:00,0.643,0.931,0.594,1.168,0.815,0.374,0.663,0.622,��,14.2,��
2021/02/18,01:10,0.642,0.933,0.594,1.171,0.814,0.374,0.662,0.624,��,9.3,��
2021/02/18,01:20,0.641,0.931,0.594,1.169,0.816,0.374,0.664,0.622,��,10.0,��
2021/02/18,01:30,0.643,0.932,0.594,1.171,0.815,0.374,0.663,0.623,���쐼,10.3,��
2021/02/18,01:40,0.643,0.932,0.594,1.173,0.814,0.374,0.664,0.623,���쐼,9.8,��
2021/02/18,01:50,0.643,0.934,0.595,1.172,0.815,0.375,0.662,0.622,���쐼,7.9,��
2021/02/18,02:00,0.643,0.934,0.596,1.171,0.812,0.374,0.664,0.623,���쐼,5.7,��
2021/02/18,02:10,0.644,0.932,0.594,1.171,0.816,0.375,0.662,0.623,���쐼,4.7,��
2021/02/18,02:20,0.642,0.931,0.596,1.171,0.815,0.376,0.660,0.624,���쐼,5.3,��
2021/02/18,02:30,0.644,0.933,0.594,1.171,0.815,0.375,0.661,0.623,�쐼,5.5,��
2021/02/18,02:40,0.644,0.933,0.595,1.169,0.816,0.375,0.662,0.624,�쐼,8.1,��
2021/02/18,02:50,0.646,0.931,0.596,1.173,0.818,0.375,0.663,0.622,�쐼,9.3,��
2021/02/18,03:00,0.645,0.932,0.594,1.174,0.819,0.375,0.660,0.624,�쐼,8.7,��
2021/02/18,03:10,0.644,0.932,0.596,1.172,0.818,0.375,0.661,0.623,�쐼,8.8,��
2021/02/18,03:20,0.643,0.932,0.596,1.173,0.819,0.375,0.662,0.623,�쐼,9.1,��
2021/02/18,03:30,0.642,0.931,0.595,1.171,0.816,0.375,0.663,0.623,�쐼,8.8,��
2021/02/18,03:40,0.643,0.933,0.594,1.172,0.815,0.374,0.661,0.623,�쐼,9.6,��
2021/02/18,03:50,0.640,0.929,0.595,1.170,0.816,0.375,0.663,0.624,�쐼,9.2,��
2021/02/18,04:00,0.641,0.930,0.595,1.172,0.816,0.373,0.663,0.623,�쐼,9.0,��
2021/02/18,04:10,0.641,0.930,0.594,1.172,0.815,0.375,0.662,0.623,�쐼,7.8,��
2021/02/18,04:20,0.640,0.931,0.594,1.171,0.815,0.376,0.662,0.622,�쐼,7.2,��
2021/02/18,04:30,0.641,0.931,0.594,1.173,0.815,0.375,0.662,0.622,���쐼,5.5,��
2021/02/18,04:40,0.643,0.931,0.594,1.170,0.815,0.374,0.662,0.624,��,5.7,��
2021/02/18,04:50,0.643,0.931,0.595,1.172,0.817,0.375,0.663,0.623,���쐼,5.8,��
2021/02/18,05:00,0.643,0.932,0.595,1.171,0.817,0.374,0.663,0.623,���쐼,4.8,��
2021/02/18,05:10,0.643,0.931,0.596,1.171,0.817,0.375,0.662,0.622,���쐼,5.4,��
2021/02/18,05:20,0.641,0.932,0.596,1.169,0.816,0.374,0.663,0.622,���쐼,6.1,��
2021/02/18,05:30,0.642,0.931,0.594,1.171,0.816,0.374,0.662,0.623,���쐼,7.1,��
2021/02/18,05:40,0.643,0.930,0.595,1.171,0.816,0.375,0.663,0.624,���쐼,7.2,��
2021/02/18,05:50,0.644,0.931,0.593,1.171,0.816,0.375,0.662,0.621,���쐼,9.5,��
2021/02/18,06:00,0.644,0.929,0.594,1.171,0.817,0.373,0.662,0.623,���쐼,7.8,��
2021/02/18,06:10,0.644,0.931,0.595,1.169,0.816,0.373,0.662,0.622,���쐼,7.1,��
2021/02/18,06:20,0.644,0.932,0.594,1.170,0.816,0.375,0.663,0.623,�쐼,7.3,��
2021/02/18,06:30,0.645,0.930,0.595,1.169,0.817,0.374,0.662,0.623,�쐼,7.0,��
2021/02/18,06:40,0.641,0.930,0.594,1.173,0.813,0.374,0.662,0.623,���쐼,5.6,��
2021/02/18,06:50,0.643,0.932,0.593,1.170,0.816,0.375,0.662,0.622,�쐼,5.9,��
2021/02/18,07:00,0.643,0.931,0.595,1.169,0.816,0.374,0.662,0.622,�쐼,5.1,��
2021/02/18,07:10,0.642,0.934,0.594,1.170,0.817,0.374,0.662,0.622,�쐼,3.9,��
2021/02/18,07:20,0.643,0.930,0.595,1.172,0.815,0.374,0.662,0.623,���쐼,2.3,��
2021/02/18,07:30,0.641,0.931,0.593,1.171,0.815,0.373,0.663,0.621,��,3.2,��
2021/02/18,07:40,0.645,0.930,0.596,1.171,0.816,0.373,0.662,0.623,���쐼,3.1,��
2021/02/18,07:50,0.643,0.933,0.594,1.172,0.816,0.374,0.663,0.622,��,3.6,��
2021/02/18,08:00,0.646,0.933,0.595,1.171,0.815,0.375,0.663,0.623,���쐼,4.4,��
2021/02/18,08:10,0.645,0.929,0.594,1.173,0.818,0.374,0.664,0.622,�쐼,2.9,��
2021/02/18,08:20,0.645,0.929,0.593,1.169,0.817,0.375,0.663,0.624,�쐼,3.6,��
2021/02/18,08:30,0.645,0.928,0.594,1.171,0.818,0.375,0.662,0.623,���쐼,4.0,��
2021/02/18,08:40,0.645,0.922,0.595,1.170,0.819,0.373,0.664,0.624,���쐼,5.1,��
2021/02/18,08:50,0.645,0.929,0.594,1.170,0.817,0.374,0.664,0.623,��,6.1,��
2021/02/18,09:00,0.644,0.922,0.596,1.172,0.816,0.373,0.664,0.623,���쐼,4.3,��
2021/02/18,09:10,0.645,0.929,0.596,1.171,0.817,0.374,0.662,0.622,��,3.3,��
2021/02/18,09:20,0.643,0.927,0.594,1.172,0.819,0.376,0.664,0.624,���쐼,8.0,��
2021/02/18,09:30,0.645,0.926,0.594,1.172,0.820,0.374,0.662,0.623,��,7.1,��
2021/02/18,09:40,0.647,0.927,0.597,1.172,0.820,0.374,0.663,0.624,���k��,5.2,��
2021/02/18,09:50,0.646,0.926,0.596,1.172,0.821,0.373,0.664,0.623,��,5.5,��
2021/02/18,10:00,0.646,0.925,0.596,1.173,0.820,0.375,0.663,0.623,���쐼,5.6,��
2021/02/18,10:10,0.644,0.927,0.595,1.174,0.822,0.375,0.662,0.624,���k��,7.3,��
2021/02/18,10:20,0.643,0.928,0.596,1.171,0.820,0.374,0.662,0.622,��,7.7,��
2021/02/18,10:30,0.645,0.928,0.598,1.173,0.820,0.375,0.663,0.625,��,9.1,��
2021/02/18,10:40,0.646,0.927,0.594,1.172,0.821,0.375,0.663,0.624,��,9.3,��
2021/02/18,10:50,0.645,0.927,0.598,1.173,0.821,0.375,0.662,0.622,��,7.2,��
2021/02/18,11:00,0.644,0.930,0.594,1.175,0.822,0.376,0.663,0.624,���쐼,6.9,��
2021/02/18,11:10,0.647,0.927,0.597,1.172,0.820,0.375,0.661,0.626,���쐼,9.0,��
2021/02/18,11:20,0.646,0.929,0.595,1.171,0.819,0.376,0.661,0.625,���쐼,7.9,��
2021/02/18,11:30,0.647,0.932,0.597,1.174,0.821,0.375,0.661,0.624,���쐼,7.5,��
2021/02/18,11:40,0.646,0.934,0.597,1.174,0.823,0.375,0.660,0.623,��,7.9,��
2021/02/18,11:50,0.646,0.933,0.598,1.173,0.820,0.377,0.661,0.623,��,7.8,��
2021/02/18,12:00,0.647,0.934,0.597,1.173,0.823,0.375,0.661,0.624,��,9.7,��
2021/02/18,12:10,0.647,0.935,0.598,1.174,0.820,0.374,0.661,0.623,��,8.5,��
2021/02/18,12:20,0.648,0.937,0.597,1.175,0.822,0.376,0.663,0.622,��,9.1,��
2021/02/18,12:30,0.647,0.936,0.596,1.174,0.820,0.374,0.662,0.624,��,9.4,��
2021/02/18,12:40,0.647,0.937,0.598,1.173,0.820,0.375,0.662,0.624,��,8.7,��
2021/02/18,12:50,0.649,0.938,0.598,1.175,0.822,0.375,0.661,0.624,��,8.3,��
2021/02/18,13:00,0.648,0.936,0.598,1.175,0.821,0.375,0.663,0.625,��,9.5,��
2021/02/18,13:10,0.649,0.936,0.598,1.174,0.823,0.376,0.660,0.623,���쐼,8.1,��
2021/02/18,13:20,0.649,0.937,0.598,1.175,0.823,0.376,0.662,0.623,��,11.4,��
2021/02/18,13:30,0.646,0.936,0.598,1.174,0.823,0.377,0.664,0.624,���쐼,8.1,��
2021/02/18,13:40,0.648,0.936,0.597,1.176,0.823,0.377,0.663,0.623,���쐼,8.5,��
2021/02/18,13:50,0.649,0.934,0.598,1.173,0.824,0.378,0.662,0.624,��,9.1,��
2021/02/18,14:00,0.647,0.934,0.600,1.174,0.820,0.378,0.662,0.623,���k��,10.3,��
2021/02/18,14:10,0.649,0.937,0.599,1.177,0.824,0.377,0.664,0.622,��,6.8,��
2021/02/18,14:20,0.647,0.936,0.600,1.176,0.823,0.378,0.661,0.623,���쐼,7.4,��
2021/02/18,14:30,0.648,0.937,0.599,1.176,0.822,0.377,0.661,0.624,��,10.6,��
2021/02/18,14:40,0.648,0.935,0.599,1.177,0.822,0.377,0.662,0.622,���k��,9.5,��
2021/02/18,14:50,0.649,0.937,0.598,1.175,0.825,0.376,0.664,0.621,���k��,9.0,��
2021/02/18,15:00,0.648,0.937,0.599,1.175,0.823,0.375,0.663,0.623,��,10.2,��
2021/02/18,15:10,0.648,0.939,0.597,1.175,0.825,0.376,0.662,0.622,���쐼,8.7,��
2021/02/18,15:20,0.649,0.940,0.598,1.177,0.825,0.377,0.663,0.621,��,6.5,��
2021/02/18,15:30,0.650,0.937,0.598,1.177,0.823,0.376,0.664,0.623,���쐼,8.5,��
2021/02/18,15:40,0.648,0.938,0.598,1.178,0.823,0.376,0.666,0.622,��,7.8,��
2021/02/18,15:50,0.649,0.941,0.598,1.176,0.822,0.377,0.666,0.623,��,9.9,��
2021/02/18,16:00,0.650,0.942,0.599,1.178,0.824,0.378,0.666,0.624,��,10.0,��
2021/02/18,16:10,0.650,0.939,0.598,1.177,0.824,0.377,0.666,0.624,��,8.1,��
2021/02/18,16:20,0.648,0.942,0.598,1.180,0.825,0.377,0.665,0.624,��,4.9,��
2021/02/18,16:30,0.650,0.941,0.597,1.178,0.824,0.377,0.665,0.624,��,6.0,��
2021/02/18,16:40,0.648,0.940,0.599,1.177,0.824,0.376,0.666,0.624,���쐼,6.7,��
2021/02/18,16:50,0.650,0.943,0.598,1.176,0.825,0.377,0.664,0.623,���쐼,6.3,��
2021/02/18,17:00,0.649,0.938,0.599,1.175,0.824,0.376,0.663,0.622,��,5.3,��
2021/02/18,17:10,0.647,0.940,0.597,1.177,0.825,0.377,0.666,0.623,��,5.7,��
2021/02/18,17:20,0.648,0.940,0.598,1.181,0.826,0.377,0.664,0.624,���쐼,5.5,��
2021/02/18,17:30,0.647,0.939,0.599,1.178,0.826,0.376,0.665,0.623,���쐼,4.8,��
2021/02/18,17:40,0.647,0.940,0.598,1.176,0.828,0.377,0.664,0.623,��,3.9,��
2021/02/18,17:50,0.647,0.941,0.597,1.177,0.825,0.375,0.664,0.622,���쐼,6.3,��
2021/02/18,18:00,0.646,0.940,0.599,1.177,0.825,0.377,0.663,0.622,��,6.4,��
2021/02/18,18:10,0.646,0.940,0.598,1.177,0.826,0.376,0.663,0.622,��,4.8,��
2021/02/18,18:20,0.645,0.937,0.599,1.177,0.824,0.376,0.662,0.623,��,3.9,��
2021/02/18,18:30,0.646,0.940,0.598,1.175,0.824,0.375,0.663,0.623,��,4.4,��
2021/02/18,18:40,0.647,0.939,0.597,1.179,0.825,0.376,0.663,0.622,��,3.7,��
2021/02/18,18:50,0.648,0.939,0.596,1.178,0.824,0.375,0.664,0.623,��,3.6,��
2021/02/18,19:00,0.647,0.940,0.595,1.176,0.826,0.377,0.661,0.623,���k��,3.8,��
2021/02/18,19:10,0.647,0.938,0.597,1.176,0.825,0.375,0.663,0.623,���k��,2.2,��
2021/02/18,19:20,0.644,0.937,0.598,1.176,0.826,0.374,0.664,0.623,��,2.6,��
2021/02/18,19:30,0.646,0.940,0.597,1.177,0.825,0.375,0.661,0.622,��,3.1,��
2021/02/18,19:40,0.645,0.938,0.598,1.175,0.826,0.376,0.661,0.622,���k��,2.6,��
2021/02/18,19:50,0.646,0.940,0.596,1.178,0.824,0.376,0.662,0.625,���k��,3.7,��
2021/02/18,20:00,0.645,0.940,0.595,1.176,0.824,0.375,0.664,0.623,�k��,3.1,��
2021/02/18,20:10,0.646,0.938,0.598,1.177,0.825,0.374,0.663,0.622,�k��,2.0,��
2021/02/18,20:20,0.644,0.938,0.596,1.177,0.825,0.374,0.662,0.623,���k��,3.0,��
2021/02/18,20:30,0.645,0.939,0.598,1.175,0.825,0.376,0.663,0.625,��,2.6,��
2021/02/18,20:40,0.646,0.938,0.596,1.175,0.825,0.375,0.662,0.623,���쐼,4.0,��
2021/02/18,20:50,0.646,0.938,0.597,1.175,0.825,0.376,0.661,0.622,��,3.0,��
2021/02/18,21:00,0.648,0.939,0.597,1.175,0.823,0.375,0.663,0.624,��,3.5,��
2021/02/18,21:10,0.645,0.938,0.598,1.176,0.824,0.374,0.662,0.622,���k��,2.3,��
2021/02/18,21:20,0.644,0.937,0.597,1.175,0.825,0.374,0.662,0.622,�k��,2.0,��
2021/02/18,21:30,0.646,0.936,0.596,1.174,0.825,0.376,0.663,0.623,���k��,2.3,��
2021/02/18,21:40,0.646,0.938,0.597,1.175,0.824,0.377,0.661,0.623,��,2.9,��
2021/02/18,21:50,0.644,0.937,0.597,1.175,0.825,0.374,0.661,0.622,���k��,2.5,��
2021/02/18,22:00,0.646,0.940,0.597,1.176,0.825,0.375,0.663,0.622,���쐼,3.8,��
2021/02/18,22:10,0.645,0.937,0.597,1.176,0.826,0.374,0.662,0.624,��,4.5,��
2021/02/18,22:20,0.645,0.937,0.598,1.176,0.825,0.376,0.660,0.624,���쐼,4.6,��
2021/02/18,22:30,0.644,0.938,0.597,1.174,0.826,0.373,0.663,0.623,���쐼,4.6,��
2021/02/18,22:40,0.645,0.939,0.596,1.178,0.825,0.373,0.663,0.622,���쐼,3.9,��
2021/02/18,22:50,0.643,0.939,0.597,1.175,0.824,0.373,0.662,0.623,���쐼,3.9,��
2021/02/18,23:00,0.645,0.938,0.598,1.176,0.823,0.374,0.662,0.623,���쐼,3.5,��
2021/02/18,23:10,0.644,0.938,0.596,1.176,0.824,0.375,0.661,0.623,���k��,3.6,��
2021/02/18,23:20,0.642,0.937,0.596,1.175,0.822,0.375,0.663,0.622,���k��,5.0,��
2021/02/18,23:30,0.645,0.938,0.595,1.176,0.826,0.372,0.662,0.622,�k��,5.0,��
2021/02/18,23:40,0.644,0.938,0.596,1.174,0.825,0.375,0.662,0.623,�k��,7.7,��
2021/02/18,23:50,0.645,0.938,0.595,1.176,0.824,0.373,0.661,0.622,�k��,5.2,��
